| time (UTC) | temp F | wind direction | speed MPH | gust MPH | rain 1hr in | rain 24hr in | rain mn in | humidity % | barometer mb |
| 20260503024600 | 82 | 0 | 0.0 | 2.0 | 0.00 | 0.00 | 0.00 | 73 | 1014.0 |
| 20260503024049 | 82 | 0 | 0.0 | 2.0 | 0.00 | 0.00 | 0.00 | 73 | 1014.1 |
| 20260503023550 | 82 | 0 | 0.0 | 2.0 | 0.00 | 0.00 | 0.00 | 73 | 1014.1 |
| 20260503023058 | 82 | 0 | 0.0 | 2.0 | 0.00 | 0.00 | 0.00 | 73 | 1014.1 |
| 20260503022549 | 82 | 0 | 0.0 | 2.0 | 0.00 | 0.00 | 0.00 | 73 | 1014.1 |
| 20260503022048 | 82 | 331 | 0.0 | 2.0 | 0.00 | 0.00 | 0.00 | 72 | 1014.1 |
| 20260503021550 | 83 | 0 | 0.0 | 4.0 | 0.00 | 0.00 | 0.00 | 72 | 1013.9 |
| 20260503021049 | 83 | 0 | 0.0 | 4.0 | 0.00 | 0.00 | 0.00 | 72 | 1013.9 |
| 20260503020549 | 83 | 336 | 0.0 | 2.0 | 0.00 | 0.00 | 0.00 | 72 | 1014.0 |
| 20260503015547 | 83 | 0 | 0.0 | 3.0 | 0.00 | 0.00 | 0.00 | 71 | 1014.0 |
| 20260503015048 | 83 | 336 | 0.0 | 3.0 | 0.00 | 0.00 | 0.00 | 71 | 1014.0 |
| 20260503014554 | 83 | 335 | 0.0 | 3.0 | 0.00 | 0.00 | 0.00 | 71 | 1014.0 |
| 20260503014050 | 83 | 0 | 0.0 | 3.0 | 0.00 | 0.00 | 0.00 | 71 | 1014.0 |
| 20260503013548 | 84 | 0 | 0.0 | 3.0 | 0.00 | 0.00 | 0.00 | 70 | 1013.9 |
| 20260503013102 | 84 | 335 | 0.0 | 3.0 | 0.00 | 0.00 | 0.00 | 70 | 1013.9 |
| 20260503012551 | 84 | 0 | 0.0 | 3.0 | 0.00 | 0.00 | 0.00 | 70 | 1013.7 |
| 20260503012047 | 84 | 334 | 1.0 | 3.0 | 0.00 | 0.00 | 0.00 | 69 | 1013.7 |
| 20260503011555 | 84 | 0 | 0.0 | 3.0 | 0.00 | 0.00 | 0.00 | 69 | 1013.6 |
| 20260503011048 | 84 | 333 | 0.0 | 3.0 | 0.00 | 0.00 | 0.00 | 67 | 1013.5 |
| 20260503010548 | 84 | 0 | 0.0 | 3.0 | 0.00 | 0.00 | 0.00 | 67 | 1013.4 |
| 20260503010052 | 84 | 0 | 1.0 | 3.0 | 0.00 | 0.00 | 0.00 | 68 | 1013.4 |
| 20260503005548 | 85 | 333 | 1.0 | 4.0 | 0.00 | 0.00 | 0.00 | 66 | 1013.4 |
| 20260503005047 | 85 | 333 | 1.0 | 4.0 | 0.00 | 0.00 | 0.00 | 67 | 1013.2 |
| 20260503004600 | 85 | 0 | 0.0 | 3.0 | 0.00 | 0.00 | 0.00 | 67 | 1013.1 |
| 20260503004048 | 85 | 0 | 0.0 | 3.0 | 0.00 | 0.00 | 0.00 | 66 | 1013.1 |
| 20260503003548 | 85 | 360 | 1.0 | 3.0 | 0.00 | 0.00 | 0.00 | 66 | 1012.9 |
| 20260503003053 | 85 | 352 | 1.0 | 3.0 | 0.00 | 0.00 | 0.00 | 65 | 1012.9 |
| 20260503002550 | 85 | 0 | 1.0 | 3.0 | 0.00 | 0.00 | 0.00 | 65 | 1012.8 |
| 20260503002048 | 85 | 352 | 1.0 | 4.0 | 0.00 | 0.00 | 0.00 | 65 | 1012.6 |
| 20260503001555 | 85 | 352 | 1.0 | 4.0 | 0.00 | 0.00 | 0.00 | 64 | 1012.5 |
| 20260503001050 | 85 | 273 | 1.0 | 3.0 | 0.00 | 0.00 | 0.00 | 65 | 1012.6 |
| 20260503000547 | 85 | 0 | 0.0 | 8.0 | 0.00 | 0.00 | 0.00 | 65 | 1012.5 |
| 20260502235548 | 85 | 186 | 2.0 | 9.0 | 0.00 | 0.00 | 0.00 | 70 | 1012.4 |
| 20260502235048 | 84 | 182 | 2.0 | 9.0 | 0.00 | 0.00 | 0.00 | 68 | 1012.2 |
| 20260502234601 | 85 | 183 | 1.0 | 7.0 | 0.00 | 0.00 | 0.00 | 70 | 1012.1 |
| 20260502234048 | 85 | 193 | 2.0 | 8.0 | 0.00 | 0.00 | 0.00 | 69 | 1012.1 |
| 20260502233549 | 85 | 197 | 2.0 | 8.0 | 0.00 | 0.00 | 0.00 | 67 | 1012.0 |
| 20260502233050 | 85 | 187 | 4.0 | 8.0 | 0.00 | 0.00 | 0.00 | 68 | 1012.0 |
| 20260502232548 | 85 | 206 | 3.0 | 9.0 | 0.00 | 0.00 | 0.00 | 67 | 1011.9 |
| 20260502232049 | 85 | 185 | 2.0 | 9.0 | 0.00 | 0.00 | 0.00 | 67 | 1011.7 |
| 20260502231552 | 85 | 190 | 3.0 | 10.0 | 0.00 | 0.00 | 0.00 | 67 | 1011.6 |
| 20260502231048 | 85 | 201 | 3.0 | 10.0 | 0.00 | 0.00 | 0.00 | 67 | 1011.5 |
| 20260502230548 | 85 | 194 | 4.0 | 11.0 | 0.00 | 0.00 | 0.00 | 67 | 1011.3 |
| 20260502230053 | 86 | 174 | 4.0 | 11.0 | 0.00 | 0.00 | 0.00 | 67 | 1011.4 |
| 20260502225551 | 86 | 203 | 3.0 | 11.0 | 0.00 | 0.00 | 0.00 | 67 | 1011.3 |
| 20260502225048 | 86 | 183 | 4.0 | 11.0 | 0.00 | 0.00 | 0.00 | 67 | 1011.3 |
| 20260502224555 | 86 | 178 | 3.0 | 8.0 | 0.00 | 0.00 | 0.00 | 68 | 1011.3 |
| 20260502224048 | 86 | 193 | 4.0 | 10.0 | 0.00 | 0.00 | 0.00 | 68 | 1011.2 |
| 20260502223550 | 86 | 186 | 4.0 | 11.0 | 0.00 | 0.00 | 0.00 | 67 | 1011.2 |
| 20260502223101 | 86 | 182 | 4.0 | 11.0 | 0.00 | 0.00 | 0.00 | 66 | 1011.1 |
| 20260502222548 | 87 | 183 | 3.0 | 9.0 | 0.00 | 0.00 | 0.00 | 67 | 1011.2 |
| 20260502222049 | 87 | 192 | 3.0 | 11.0 | 0.00 | 0.00 | 0.00 | 66 | 1011.3 |
| 20260502221557 | 87 | 184 | 3.0 | 11.0 | 0.00 | 0.00 | 0.00 | 66 | 1011.2 |
| 20260502221048 | 87 | 181 | 4.0 | 13.0 | 0.00 | 0.00 | 0.00 | 65 | 1011.2 |
| 20260502220548 | 87 | 190 | 3.0 | 13.0 | 0.00 | 0.00 | 0.00 | 65 | 1011.3 |
| 20260502215548 | 88 | 200 | 3.0 | 10.0 | 0.00 | 0.00 | 0.00 | 65 | 1011.0 |
| 20260502215048 | 88 | 190 | 3.0 | 9.0 | 0.00 | 0.00 | 0.00 | 65 | 1011.1 |
| 20260502214612 | 88 | 215 | 3.0 | 9.0 | 0.00 | 0.00 | 0.00 | 64 | 1011.1 |
| 20260502214048 | 88 | 192 | 4.0 | 8.0 | 0.00 | 0.00 | 0.00 | 63 | 1011.0 |
| 20260502213550 | 89 | 188 | 3.0 | 9.0 | 0.00 | 0.00 | 0.00 | 63 | 1010.9 |
| 20260502213109 | 89 | 156 | 3.0 | 9.0 | 0.00 | 0.00 | 0.00 | 64 | 1010.9 |
| 20260502212548 | 89 | 184 | 3.0 | 9.0 | 0.00 | 0.00 | 0.00 | 63 | 1010.8 |
| 20260502212049 | 89 | 191 | 3.0 | 9.0 | 0.00 | 0.00 | 0.00 | 63 | 1010.7 |
| 20260502211554 | 89 | 196 | 3.0 | 11.0 | 0.00 | 0.00 | 0.00 | 63 | 1010.7 |
| 20260502211048 | 89 | 196 | 3.0 | 11.0 | 0.00 | 0.00 | 0.00 | 63 | 1010.6 |
| 20260502210547 | 89 | 185 | 4.0 | 10.0 | 0.00 | 0.00 | 0.00 | 63 | 1010.6 |
| 20260502210054 | 88 | 177 | 3.0 | 10.0 | 0.00 | 0.00 | 0.00 | 68 | 1010.6 |
| 20260502205551 | 88 | 221 | 4.0 | 11.0 | 0.00 | 0.00 | 0.00 | 69 | 1010.4 |
| 20260502205048 | 88 | 186 | 5.0 | 11.0 | 0.00 | 0.00 | 0.00 | 69 | 1010.5 |
| 20260502204550 | 88 | 165 | 5.0 | 11.0 | 0.00 | 0.00 | 0.00 | 69 | 1010.6 |
| 20260502204051 | 89 | 203 | 6.0 | 11.0 | 0.00 | 0.00 | 0.00 | 68 | 1010.7 |
| 20260502203548 | 89 | 189 | 3.0 | 10.0 | 0.00 | 0.00 | 0.00 | 66 | 1010.6 |
| 20260502203113 | 89 | 185 | 3.0 | 10.0 | 0.00 | 0.00 | 0.00 | 69 | 1010.7 |
| 20260502202553 | 88 | 182 | 4.0 | 14.0 | 0.00 | 0.00 | 0.00 | 69 | 1010.7 |
| 20260502202049 | 88 | 171 | 4.0 | 15.0 | 0.00 | 0.00 | 0.00 | 69 | 1010.8 |
| 20260502201547 | 88 | 181 | 5.0 | 15.0 | 0.00 | 0.00 | 0.00 | 69 | 1011.0 |
| 20260502201052 | 88 | 171 | 6.0 | 13.0 | 0.00 | 0.00 | 0.00 | 69 | 1011.0 |
| 20260502200549 | 89 | 254 | 6.0 | 13.0 | 0.00 | 0.00 | 0.00 | 69 | 1011.0 |
| 20260502200057 | 90 | 159 | 4.0 | 11.0 | 0.00 | 0.00 | 0.00 | 68 | 1011.0 |
| 20260502195549 | 91 | 180 | 4.0 | 9.0 | 0.00 | 0.00 | 0.00 | 64 | 1011.2 |
| 20260502195047 | 91 | 192 | 3.0 | 9.0 | 0.00 | 0.00 | 0.00 | 60 | 1011.3 |
| 20260502194551 | 91 | 191 | 3.0 | 9.0 | 0.00 | 0.00 | 0.00 | 62 | 1011.4 |
| 20260502194047 | 90 | 196 | 3.0 | 9.0 | 0.00 | 0.00 | 0.00 | 61 | 1011.4 |
| 20260502193547 | 90 | 215 | 2.0 | 14.0 | 0.00 | 0.00 | 0.00 | 64 | 1011.4 |
| 20260502193056 | 89 | 184 | 5.0 | 14.0 | 0.00 | 0.00 | 0.00 | 64 | 1011.5 |
| 20260502192548 | 89 | 174 | 5.0 | 11.0 | 0.00 | 0.00 | 0.00 | 63 | 1011.4 |
| 20260502192048 | 89 | 205 | 5.0 | 11.0 | 0.00 | 0.00 | 0.00 | 63 | 1011.4 |
| 20260502191600 | 89 | 170 | 3.0 | 11.0 | 0.00 | 0.00 | 0.00 | 64 | 1011.4 |
| 20260502191049 | 89 | 150 | 3.0 | 12.0 | 0.00 | 0.00 | 0.00 | 64 | 1011.5 |
| 20260502190551 | 89 | 207 | 3.0 | 13.0 | 0.00 | 0.00 | 0.00 | 65 | 1011.5 |
| 20260502190054 | 89 | 159 | 4.0 | 13.0 | 0.00 | 0.00 | 0.00 | 63 | 1011.6 |
| 20260502185548 | 90 | 215 | 3.0 | 11.0 | 0.00 | 0.00 | 0.00 | 64 | 1011.6 |
| 20260502185052 | 90 | 194 | 2.0 | 11.0 | 0.00 | 0.00 | 0.00 | 63 | 1011.6 |
| 20260502184552 | 90 | 186 | 3.0 | 10.0 | 0.00 | 0.00 | 0.00 | 63 | 1011.6 |
| 20260502184048 | 90 | 178 | 4.0 | 10.0 | 0.00 | 0.00 | 0.00 | 61 | 1011.6 |
| 20260502183547 | 89 | 158 | 3.0 | 10.0 | 0.00 | 0.00 | 0.00 | 63 | 1011.7 |
| 20260502183049 | 90 | 177 | 3.0 | 10.0 | 0.00 | 0.00 | 0.00 | 62 | 1011.7 |
| 20260502182552 | 90 | 215 | 4.0 | 12.0 | 0.00 | 0.00 | 0.00 | 62 | 1011.7 |
| 20260502182048 | 90 | 186 | 4.0 | 13.0 | 0.00 | 0.00 | 0.00 | 60 | 1011.8 |
| 20260502181552 | 90 | 207 | 5.0 | 13.0 | 0.00 | 0.00 | 0.00 | 61 | 1011.9 |
| 20260502181049 | 90 | 199 | 3.0 | 12.0 | 0.00 | 0.00 | 0.00 | 63 | 1011.9 |
| 20260502180549 | 89 | 205 | 3.0 | 13.0 | 0.00 | 0.00 | 0.00 | 64 | 1011.8 |
| 20260502164052 | 87 | 198 | 3.0 | 14.0 | 0.00 | 0.00 | 0.00 | 69 | 1012.5 |
| 20260502163550 | 87 | 194 | 4.0 | 14.0 | 0.00 | 0.00 | 0.00 | 69 | 1012.4 |
| 20260502163109 | 87 | 173 | 5.0 | 12.0 | 0.00 | 0.00 | 0.00 | 69 | 1012.4 |
| 20260502162550 | 87 | 192 | 4.0 | 12.0 | 0.00 | 0.00 | 0.00 | 71 | 1012.5 |
| 20260502162049 | 86 | 192 | 6.0 | 12.0 | 0.00 | 0.00 | 0.00 | 71 | 1012.6 |
| 20260502161619 | 86 | 211 | 5.0 | 13.0 | 0.00 | 0.00 | 0.00 | 71 | 1012.6 |
| 20260502161049 | 86 | 203 | 5.0 | 15.0 | 0.00 | 0.00 | 0.00 | 70 | 1012.7 |
| 20260502160549 | 86 | 180 | 4.0 | 15.0 | 0.00 | 0.00 | 0.00 | 70 | 1012.6 |
| 20260502152050 | 83 | 179 | 4.0 | 12.0 | 0.00 | 0.00 | 0.00 | 75 | 1013.0 |
| 20260502151557 | 83 | 168 | 3.0 | 14.0 | 0.00 | 0.00 | 0.00 | 74 | 1013.1 |
| 20260502151049 | 83 | 213 | 2.0 | 14.0 | 0.00 | 0.00 | 0.00 | 74 | 1012.9 |
| 20260502150551 | 84 | 210 | 4.0 | 11.0 | 0.00 | 0.00 | 0.00 | 74 | 1013.0 |
| 20260502130551 | 82 | 171 | 3.0 | 9.0 | 0.00 | 0.00 | 0.00 | 77 | 1012.4 |
| 20260502130105 | 82 | 166 | 2.0 | 8.0 | 0.00 | 0.00 | 0.00 | 77 | 1012.4 |
| 20260502123544 | 81 | 192 | 1.0 | 6.0 | 0.00 | 0.00 | 0.00 | 78 | 1012.4 |
| 20260502123112 | 81 | 203 | 1.0 | 6.0 | 0.00 | 0.00 | 0.00 | 78 | 1012.3 |
| 20260502122545 | 81 | 209 | 2.0 | 6.0 | 0.00 | 0.00 | 0.00 | 78 | 1012.3 |
| 20260502122049 | 81 | 0 | 1.0 | 6.0 | 0.00 | 0.00 | 0.00 | 79 | 1012.4 |
| 20260502121556 | 81 | 186 | 3.0 | 11.0 | 0.00 | 0.00 | 0.00 | 79 | 1012.4 |
| 20260502121048 | 80 | 193 | 2.0 | 11.0 | 0.00 | 0.00 | 0.00 | 79 | 1012.4 |
| 20260502120548 | 80 | 194 | 2.0 | 9.0 | 0.00 | 0.00 | 0.00 | 79 | 1012.3 |
| 20260502115548 | 80 | 181 | 2.0 | 7.0 | 0.00 | 0.00 | 0.00 | 79 | 1012.3 |
| 20260502115048 | 80 | 180 | 2.0 | 7.0 | 0.00 | 0.00 | 0.00 | 79 | 1012.4 |
| 20260502114553 | 80 | 196 | 3.0 | 8.0 | 0.00 | 0.00 | 0.00 | 79 | 1012.3 |
| 20260502114048 | 80 | 148 | 3.0 | 8.0 | 0.00 | 0.00 | 0.00 | 80 | 1012.3 |
| 20260502113548 | 80 | 194 | 1.0 | 5.0 | 0.00 | 0.00 | 0.00 | 80 | 1012.4 |
| 20260502113052 | 80 | 187 | 1.0 | 6.0 | 0.00 | 0.00 | 0.00 | 79 | 1012.3 |
| 20260502112548 | 79 | 202 | 1.0 | 10.0 | 0.00 | 0.00 | 0.00 | 79 | 1012.3 |
| 20260502112048 | 79 | 197 | 3.0 | 10.0 | 0.00 | 0.00 | 0.00 | 79 | 1012.4 |
| 20260502111554 | 79 | 196 | 0.0 | 4.0 | 0.00 | 0.00 | 0.00 | 79 | 1012.4 |
| 20260502111045 | 79 | 0 | 0.0 | 5.0 | 0.00 | 0.00 | 0.00 | 79 | 1012.5 |
| 20260502110545 | 79 | 161 | 1.0 | 5.0 | 0.00 | 0.00 | 0.00 | 79 | 1012.3 |
| 20260502110055 | 79 | 194 | 1.0 | 8.0 | 0.00 | 0.00 | 0.00 | 79 | 1012.3 |
| 20260502105548 | 79 | 194 | 1.0 | 8.0 | 0.00 | 0.00 | 0.00 | 79 | 1012.3 |
| 20260502105047 | 79 | 190 | 2.0 | 5.0 | 0.00 | 0.00 | 0.00 | 79 | 1012.3 |
| 20260502104554 | 79 | 195 | 1.0 | 6.0 | 0.00 | 0.00 | 0.00 | 80 | 1012.2 |
| 20260502104047 | 79 | 202 | 2.0 | 7.0 | 0.00 | 0.00 | 0.00 | 80 | 1012.1 |
| 20260502103551 | 79 | 197 | 1.0 | 7.0 | 0.00 | 0.00 | 0.00 | 80 | 1012.2 |
| 20260502103054 | 79 | 186 | 2.0 | 6.0 | 0.00 | 0.00 | 0.00 | 80 | 1012.1 |
| 20260502102548 | 79 | 190 | 2.0 | 6.0 | 0.00 | 0.00 | 0.00 | 80 | 1012.2 |
| 20260502102047 | 79 | 185 | 2.0 | 6.0 | 0.00 | 0.00 | 0.00 | 80 | 1012.2 |
| 20260502101602 | 79 | 177 | 1.0 | 4.0 | 0.00 | 0.00 | 0.00 | 80 | 1012.2 |
| 20260502101048 | 79 | 0 | 1.0 | 5.0 | 0.00 | 0.00 | 0.00 | 79 | 1012.2 |
| 20260502100548 | 79 | 176 | 2.0 | 5.0 | 0.00 | 0.00 | 0.00 | 79 | 1012.2 |
| 20260502091047 | 79 | 192 | 1.0 | 5.0 | 0.00 | 0.00 | 0.00 | 80 | 1012.0 |
| 20260502090547 | 78 | 211 | 2.0 | 5.0 | 0.00 | 0.00 | 0.00 | 80 | 1012.0 |
| 20260502071049 | 78 | 187 | 1.0 | 5.0 | 0.00 | 0.00 | 0.00 | 79 | 1012.0 |
| 20260502070551 | 78 | 186 | 1.0 | 5.0 | 0.00 | 0.00 | 0.00 | 79 | 1011.9 |
| 20260502070107 | 78 | 189 | 2.0 | 5.0 | 0.00 | 0.00 | 0.00 | 80 | 1011.9 |
| 20260502065551 | 78 | 180 | 0.0 | 3.0 | 0.00 | 0.00 | 0.00 | 80 | 1012.0 |
| 20260502065049 | 79 | 0 | 0.0 | 4.0 | 0.00 | 0.00 | 0.00 | 80 | 1011.9 |
| 20260502064554 | 78 | 176 | 1.0 | 4.0 | 0.00 | 0.00 | 0.00 | 80 | 1011.9 |
| 20260502064049 | 78 | 191 | 1.0 | 4.0 | 0.00 | 0.00 | 0.00 | 80 | 1012.1 |
| 20260502063549 | 78 | 191 | 1.0 | 4.0 | 0.00 | 0.00 | 0.00 | 80 | 1012.2 |
| 20260502063051 | 78 | 0 | 0.0 | 4.0 | 0.00 | 0.00 | 0.00 | 79 | 1012.3 |
| 20260502062549 | 78 | 190 | 0.0 | 4.0 | 0.00 | 0.00 | 0.00 | 80 | 1012.2 |
| 20260502062049 | 78 | 190 | 1.0 | 2.0 | 0.00 | 0.00 | 0.00 | 80 | 1012.2 |
| 20260502061551 | 78 | 0 | 0.0 | 4.0 | 0.00 | 0.00 | 0.00 | 80 | 1012.2 |
| 20260502061051 | 78 | 184 | 1.0 | 5.0 | 0.00 | 0.00 | 0.00 | 80 | 1012.2 |
| 20260502060549 | 78 | 0 | 2.0 | 5.0 | 0.00 | 0.00 | 0.00 | 80 | 1012.1 |
| 20260502060053 | 78 | 168 | 1.0 | 5.0 | 0.00 | 0.00 | 0.00 | 80 | 1012.2 |
| 20260502055550 | 78 | 0 | 1.0 | 5.0 | 0.00 | 0.00 | 0.00 | 80 | 1012.2 |
| 20260502055053 | 78 | 165 | 1.0 | 4.0 | 0.00 | 0.00 | 0.00 | 80 | 1012.2 |
| 20260502054551 | 78 | 203 | 1.0 | 5.0 | 0.00 | 0.00 | 0.00 | 80 | 1012.2 |
| 20260502054049 | 78 | 173 | 1.0 | 5.0 | 0.00 | 0.00 | 0.00 | 80 | 1012.1 |
| 20260502053549 | 78 | 178 | 0.0 | 3.0 | 0.00 | 0.00 | 0.00 | 80 | 1012.1 |
| 20260502053058 | 78 | 0 | 0.0 | 2.0 | 0.00 | 0.00 | 0.00 | 80 | 1012.3 |
| 20260502052549 | 78 | 0 | 0.0 | 2.0 | 0.00 | 0.00 | 0.00 | 80 | 1012.4 |
| 20260502052052 | 78 | 0 | 0.0 | 2.0 | 0.00 | 0.00 | 0.00 | 80 | 1012.4 |
| 20260502051602 | 78 | 177 | 0.0 | 2.0 | 0.00 | 0.00 | 0.00 | 80 | 1012.4 |
| 20260502051049 | 78 | 0 | 0.0 | 3.0 | 0.00 | 0.00 | 0.00 | 80 | 1012.6 |
| 20260502050549 | 78 | 177 | 0.0 | 3.0 | 0.00 | 0.00 | 0.00 | 80 | 1012.6 |
| 20260502050052 | 78 | 177 | 0.0 | 3.0 | 0.00 | 0.00 | 0.00 | 80 | 1012.7 |
| 20260502045553 | 78 | 0 | 0.0 | 1.0 | 0.00 | 0.00 | 0.00 | 79 | 1012.7 |
| 20260502045049 | 78 | 0 | 0.0 | 2.0 | 0.00 | 0.00 | 0.00 | 79 | 1012.8 |
| 20260502044559 | 78 | 0 | 0.0 | 2.0 | 0.00 | 0.00 | 0.00 | 79 | 1012.9 |
| 20260502044052 | 78 | 0 | 0.0 | 2.0 | 0.00 | 0.00 | 0.00 | 79 | 1013.0 |
| 20260502043553 | 78 | 0 | 0.0 | 2.0 | 0.00 | 0.00 | 0.00 | 79 | 1012.9 |
| 20260502043056 | 78 | 0 | 0.0 | 2.0 | 0.00 | 0.00 | 0.00 | 79 | 1013.1 |
| 20260502042548 | 78 | 0 | 0.0 | 2.0 | 0.00 | 0.00 | 0.00 | 78 | 1013.1 |
| 20260502042052 | 78 | 0 | 0.0 | 2.0 | 0.00 | 0.00 | 0.00 | 78 | 1013.1 |
| 20260502041553 | 78 | 0 | 0.0 | 2.0 | 0.00 | 0.00 | 0.00 | 78 | 1013.2 |
| 20260502041052 | 78 | 183 | 0.0 | 4.0 | 0.00 | 0.00 | 0.00 | 78 | 1013.2 |
| 20260502040552 | 78 | 183 | 0.0 | 4.0 | 0.00 | 0.00 | 0.00 | 78 | 1013.2 |
| 20260502035549 | 78 | 183 | 1.0 | 3.0 | 0.00 | 0.00 | 0.00 | 79 | 1013.3 |
| 20260502035049 | 79 | 0 | 1.0 | 3.0 | 0.00 | 0.00 | 0.00 | 78 | 1013.4 |
| 20260502034550 | 79 | 186 | 1.0 | 3.0 | 0.00 | 0.00 | 0.00 | 78 | 1013.3 |
| 20260502034049 | 79 | 186 | 1.0 | 5.0 | 0.00 | 0.00 | 0.00 | 78 | 1013.2 |
| 20260502033550 | 79 | 0 | 1.0 | 5.0 | 0.00 | 0.00 | 0.00 | 78 | 1013.1 |
| 20260502033053 | 79 | 206 | 1.0 | 3.0 | 0.00 | 0.00 | 0.00 | 78 | 1013.2 |
| 20260502032549 | 79 | 178 | 1.0 | 7.0 | 0.00 | 0.00 | 0.00 | 78 | 1013.2 |
| 20260502032049 | 79 | 173 | 1.0 | 7.0 | 0.00 | 0.00 | 0.00 | 78 | 1013.1 |
| 20260502031553 | 79 | 173 | 1.0 | 5.0 | 0.00 | 0.00 | 0.00 | 78 | 1013.2 |
| 20260502031049 | 79 | 166 | 1.0 | 5.0 | 0.00 | 0.00 | 0.00 | 78 | 1013.2 |
| 20260502030550 | 79 | 196 | 1.0 | 5.0 | 0.00 | 0.00 | 0.00 | 78 | 1013.1 |
| 20260502030054 | 79 | 188 | 2.0 | 5.0 | 0.00 | 0.00 | 0.00 | 78 | 1013.2 |
| 20260502025549 | 79 | 135 | 1.0 | 3.0 | 0.00 | 0.00 | 0.00 | 78 | 1013.2 |
| 20260502025049 | 79 | 182 | 1.0 | 7.0 | 0.00 | 0.00 | 0.00 | 78 | 1013.1 |